Regional Weather Roundup
Issued by NWS Midland/Odessa, TX

Skip options and go directly to product.
Home | Oldest Version | Previous Version | Current Version | All | Text Only | Save Text | Print | Product List | Glossary Off

Skip product version selection by date and time.   

844
ASUS44 KMAF 230910
RWRMAF
MIDLAND AREA WEATHER ROUNDUP
NATIONAL WEATHER SERVICE MIDLAND TX
300 AM CST SUN NOV 23 2014

...IN SOUTHWEST TEXAS AND SOUTHEAST NEW MEXICO...

CITY           SKY/WX    TMP DP  RH WIND       PRES   REMARKS
ALPINE         CLEAR     51  32  48 SW10G17   29.91R
ANDREWS        FAIR      50  32  49 W14G20    29.67F
ARTESIA        NOT AVBL
BIG SPRING     CLEAR     46  41  82 S8        29.66F
CARLSBAD       PTCLDY    60  18  19 W30G39    29.66F
DRYDEN           N/A     53  39  59 W9        29.74F
FORT STOCKTON  CLEAR     53  33  46 SW16      29.75F
GUAD PASS      PTCLDY    46  20  35 W46G55    29.78R WCI  35
HOBBS          CLEAR     50  23  34 W14       29.69F
MARFA          PTCLDY    37  30  75 W5        29.91R WCI  34
MIDLAND AIRPK  CLEAR     53  37  54 SW10      29.68F
MIDLAND INTL   CLEAR     53  36  52 SW16      29.67F
ODESSA         CLEAR     49  34  56 W13       29.69F
PECOS          CLEAR     59  29  32 SW25G35   29.72S
PRESIDIO       FAIR      52  37  58 CALM      29.88S
SEMINOLE       PTCLDY    50  24  36 W15       29.67F
SNYDER         MOCLDY    47  47 100 S9        29.62F FOG
WINK           CLEAR     47  30  51 W8        29.69F
$$
...OTHER STATIONS IN TEXAS...

CITY           SKY/WX    TMP DP  RH WIND       PRES   REMARKS
ABILENE        CLEAR     53  51  93 SW12      29.62F
AMARILLO       MOCLDY    51  20  29 W17       29.47F
AUSTIN         CLOUDY    57  57 100 SW5       29.68R
BROWNSVILLE    CLEAR     63  62  97 S5        29.76F
CORPUS CHRISTI PTCLDY    62  60  93 SW6       29.75R
DALLAS FTW     CLOUDY    51  51 100 SW6       29.62F
DEL RIO        CLEAR     48  47  96 CALM      29.72F
EL PASO        CLEAR     53  21  28 S13       29.88F
HOUSTON INT    CLOUDY    62  61  96 CALM      29.65R
LUBBOCK        PTCLDY    50  27  40 W15       29.57F
SAN ANGELO     CLEAR     50  45  83 SW8       29.67F
SAN ANTONIO    MOCLDY    59  57  93 SW5       29.72S
WACO           CLOUDY    57  55  93 W3        29.66R
WICHITA FALLS  NOT AVBL
$$
...OTHER LOCATIONS IN NEW MEXICO...

CITY           SKY/WX    TMP DP  RH WIND       PRES   REMARKS
ALAMAGORDO     CLEAR     37  19  48 MISG      29.82S
ALBUQUERQUE    MOCLDY    48  18  30 W7        29.79F
CANNON AFB     CLOUDY    46  18  31 SW12      29.74F
CLOVIS         CLOUDY    54  18  24 W31G39    29.60S
HOLLOMAN AFB   CLEAR     40  18  40 SE8       29.80F WCI  35
ROSWELL        CLOUDY    48  23  37 W8        29.67F
RUIDOSO        CLEAR     45  16  31 NW10      29.81S WCI  39
SANTA FE       PTCLDY    33  13  43 N6        29.77F WCI  28
TRUTH OR CONSE CLEAR     45  16  31 VRB3      29.82F
TUCUMCARI        N/A     52  19  27 W17       29.60R
$$

USA.gov is the U.S. government's official web portal to all federal, state and local government web resources and services.